TimeEDT,TemperatureF,Dew PointF,Humidity,Sea Level PressureIn,VisibilityMPH,Wind Direction,Wind SpeedMPH,Gust SpeedMPH,PrecipitationIn,Events,Conditions,WindDirDegrees,DateUTC
12:05 AM,59.0,55.4,88,30.24,6.0,East,4.6,-,N/A,,Scattered Clouds,100,2013-04-17 04:05:00
12:51 AM,57.9,55.0,90,30.25,6.0,Calm,Calm,-,N/A,,Clear,0,2013-04-17 04:51:00
1:51 AM,55.9,52.0,87,30.24,6.0,Calm,Calm,-,N/A,,Clear,0,2013-04-17 05:51:00
2:51 AM,55.0,52.0,89,30.22,5.0,Calm,Calm,-,N/A,,Clear,0,2013-04-17 06:51:00
3:51 AM,54.0,51.1,90,30.22,9.0,Calm,Calm,-,N/A,,Clear,0,2013-04-17 07:51:00
4:51 AM,53.1,50.0,89,30.21,6.0,Calm,Calm,-,N/A,,Clear,0,2013-04-17 08:51:00
5:51 AM,53.1,50.0,89,30.22,8.0,Calm,Calm,-,N/A,,Clear,0,2013-04-17 09:51:00
6:51 AM,53.1,50.0,89,30.24,6.0,Calm,Calm,-,N/A,,Clear,0,2013-04-17 10:51:00
7:51 AM,64.9,60.1,84,30.25,10.0,Calm,Calm,-,N/A,,Clear,0,2013-04-17 11:51:00
8:28 AM,64.4,59.0,83,30.25,2.5,Calm,Calm,-,N/A,,Haze,0,2013-04-17 12:28:00
8:37 AM,66.2,59.0,78,30.25,7.0,Calm,Calm,-,N/A,,Clear,0,2013-04-17 12:37:00
8:51 AM,68.0,59.0,73,30.25,6.0,Calm,Calm,-,N/A,,Haze,0,2013-04-17 12:51:00
9:51 AM,66.9,57.9,73,30.25,9.0,SSE,3.5,-,N/A,,Clear,160,2013-04-17 13:51:00
10:51 AM,70.0,57.9,65,30.24,10.0,SSE,4.6,-,N/A,,Clear,150,2013-04-17 14:51:00
11:51 AM,71.1,57.9,63,30.24,10.0,SE,5.8,-,N/A,,Clear,140,2013-04-17 15:51:00
12:51 PM,70.0,57.9,65,30.23,10.0,SSE,5.8,-,N/A,,Clear,150,2013-04-17 16:51:00
1:51 PM,73.0,57.9,59,30.22,10.0,SSE,5.8,-,N/A,,Clear,160,2013-04-17 17:51:00
2:51 PM,72.0,57.9,61,30.21,10.0,SSE,5.8,-,N/A,,Clear,150,2013-04-17 18:51:00
3:51 PM,72.0,59.0,64,30.18,10.0,SSE,6.9,-,N/A,,Clear,150,2013-04-17 19:51:00
4:51 PM,72.0,57.9,61,30.19,10.0,SE,4.6,-,N/A,,Clear,140,2013-04-17 20:51:00
5:51 PM,70.0,57.9,65,30.19,10.0,SE,4.6,-,N/A,,Clear,140,2013-04-17 21:51:00
6:51 PM,66.9,57.9,73,30.19,10.0,ESE,4.6,-,N/A,,Clear,110,2013-04-17 22:51:00
7:51 PM,63.0,57.9,84,30.19,6.0,East,5.8,-,N/A,,Haze,100,2013-04-17 23:51:00
8:51 PM,62.1,57.9,86,30.21,6.0,ESE,4.6,-,N/A,,Clear,110,2013-04-18 00:51:00
9:51 PM,61.0,57.9,90,30.22,7.0,ESE,5.8,-,N/A,,Clear,120,2013-04-18 01:51:00
10:51 PM,61.0,57.9,90,30.23,6.0,East,5.8,-,N/A,,Clear,90,2013-04-18 02:51:00
11:51 PM,61.0,57.0,87,30.22,6.0,ESE,5.8,-,N/A,,Clear,110,2013-04-18 03:51:00